Weather History for Cook, MN

Change the Weather History Date:

Tuesday, March 4, 2014

  Actual Average Record
Temperature  
Mean Temperature 0 °F -  
Max Temperature 17 °F 26 °F 39 °F (2009)
Min Temperature -16 °F 4 °F -16 °F (2008)
Degree Days  
Heating Degree Days 64    
Moisture  
Dew Point -9 °F    
Average Humidity 63    
Maximum Humidity 92    
Minimum Humidity 32    
Precipitation  
Precipitation 0.02 in - - ()
Sea Level Pressure  
Sea Level Pressure 30.20 in    
Wind  
Wind Speed 1 mph (NNE)    
Max Wind Speed 7 mph    
Max Gust Speed -    
Visibility 9 miles    
Events Snow    
Averages and records for this station are not official NWS values.
T = Trace of Precipitation, MM = Missing Value Source: NWS Daily Summary

Daily Weather History Graph

Daily Weather History Graph

Search for Another Location

Airport:

Trip Planner

Search our weather history database for the weather conditions in past years. The results will help you decide how hot, cold, wet, or windy it might be!

Date:

Astronomy

Mar. 04, 2014 Rise Set
Actual Time 6:45 AM CST 5:59 PM CST
Civil Twilight 6:14 AM CST 6:30 PM CST
Nautical Twilight 5:39 AM CST 7:06 PM CST
Astronomical Twilight 5:03 AM CST 7:42 PM CST
Moon 8:14 AM CST (3/4) 10:28 PM CST (3/4)
Length of Visible Light 12h 16m
Length of Day
11h 14m
Waxing Crescent, 15% of the Moon is Illuminated
Mar 4
Waxing Crescent
Mar 8
First Quarter
Mar 16
Full
Mar 23
Last Quarter
Mar 30
New

Hourly Weather History & Observations

Time (CST) Temp. Windchill Dew Point Humidity Pressure Visibility Wind Dir Wind Speed Gust Speed Precip Events Conditions
12:15 AM 3.2 °F - -0.4 °F 85% 30.18 in 3.0 mi Calm Calm - N/A Snow Light Snow
12:34 AM 3.2 °F - -0.4 °F 85% 30.18 in 4.0 mi Calm Calm - N/A Snow Light Snow
12:55 AM 3.2 °F - -0.4 °F 85% 30.18 in 7.0 mi Calm Calm - N/A Snow Light Snow
1:15 AM 3.2 °F - -0.4 °F 85% 30.18 in 5.0 mi Calm Calm - N/A Snow Light Snow
1:34 AM 3.2 °F - -0.4 °F 85% 30.18 in 5.0 mi Calm Calm - N/A Snow Light Snow
1:55 AM 3.2 °F - -0.4 °F 85% 30.17 in 7.0 mi Calm Calm - N/A Snow Light Snow
2:15 AM 3.2 °F - -0.4 °F 85% 30.16 in 7.0 mi Calm Calm - 0.01 in Snow Light Snow
2:34 AM 3.2 °F - -0.4 °F 85% 30.16 in 7.0 mi Calm Calm - 0.01 in Snow Light Snow
2:55 AM 1.4 °F - -2.2 °F 85% 30.16 in 7.0 mi Calm Calm - 0.01 in Snow Light Snow
3:15 AM -0.4 °F - -2.2 °F 92% 30.15 in 5.0 mi Calm Calm - N/A Snow Light Snow
3:34 AM -0.4 °F - -4.0 °F 85% 30.15 in 7.0 mi Calm Calm - N/A Snow Light Snow
3:55 AM -2.2 °F - -7.6 °F 78% 30.15 in 10.0 mi Calm Calm - N/A Snow Light Snow
4:15 AM -4.0 °F - -7.6 °F 85% 30.15 in 10.0 mi Calm Calm - N/A Snow Light Snow
4:34 AM -7.6 °F - -11.2 °F 84% 30.15 in 10.0 mi Calm Calm - N/A Snow Light Snow
4:55 AM -7.6 °F - -11.2 °F 84% 30.15 in 10.0 mi Calm Calm - N/A Snow Light Snow
5:15 AM -9.4 °F - -11.2 °F 92% 30.16 in 10.0 mi Calm Calm - N/A   Clear
5:35 AM -9.4 °F - -14.8 °F 77% 30.17 in 10.0 mi Calm Calm - N/A   Clear
5:55 AM -13.0 °F - -16.6 °F 84% 30.17 in 7.0 mi Calm Calm - N/A Snow Light Snow
6:14 AM -14.8 °F - -18.4 °F 84% 30.17 in 7.0 mi Calm Calm - N/A   Mostly Cloudy
6:35 AM -14.8 °F - -18.4 °F 84% 30.18 in 10.0 mi Calm Calm - N/A   Clear
6:54 AM -14.8 °F - -20.2 °F 77% 30.17 in 10.0 mi Calm Calm - N/A   Clear
7:15 AM -16.6 °F - -20.2 °F 84% 30.17 in 10.0 mi Calm Calm - N/A   Clear
7:34 AM -14.8 °F - -20.2 °F 77% 30.18 in 10.0 mi Calm Calm - N/A   Clear
7:55 AM -11.2 °F - -14.8 °F 84% 30.18 in 10.0 mi Calm Calm - N/A   Clear
8:15 AM -7.6 °F - -11.2 °F 84% 30.17 in 10.0 mi Calm Calm - N/A   Clear
8:34 AM -4.0 °F - -7.6 °F 85% 30.17 in 10.0 mi Calm Calm - N/A   Clear
8:55 AM -0.4 °F - -4.0 °F 85% 30.17 in 10.0 mi Calm Calm - N/A   Clear
9:15 AM 1.4 °F - -2.2 °F 85% 30.18 in 10.0 mi Calm Calm - N/A   Clear
9:34 AM 5.0 °F - -4.0 °F 66% 30.18 in 10.0 mi Calm Calm - N/A   Clear
9:55 AM 6.8 °F - -4.0 °F 61% 30.18 in 10.0 mi Calm Calm - N/A   Clear
10:15 AM 8.6 °F - -5.8 °F 52% 30.18 in 10.0 mi Calm Calm - N/A   Clear
10:34 AM 8.6 °F - -5.8 °F 52% 30.19 in 10.0 mi Calm Calm - N/A   Clear
10:55 AM 10.4 °F 4.0 °F -7.6 °F 44% 30.19 in 10.0 mi NNW 3.5 mph - N/A   Clear
11:15 AM 10.4 °F 0.8 °F -7.6 °F 44% 30.19 in 10.0 mi West 5.8 mph - N/A   Clear
11:34 AM 12.2 °F - -7.6 °F 41% 30.19 in 10.0 mi Calm Calm - N/A   Clear
11:55 AM 12.2 °F - -7.6 °F 41% 30.19 in 10.0 mi Calm Calm - N/A   Clear
12:15 PM 14.0 °F 3.9 °F -7.6 °F 38% 30.19 in 10.0 mi NNE 6.9 mph - N/A   Clear
12:34 PM 14.0 °F 3.9 °F -7.6 °F 38% 30.19 in 10.0 mi North 6.9 mph - N/A   Clear
12:55 PM 15.8 °F 10.2 °F -7.6 °F 35% 30.18 in 10.0 mi North 3.5 mph - N/A   Clear
1:15 PM 15.8 °F 10.2 °F -5.8 °F 38% 30.17 in 10.0 mi NNE 3.5 mph - 0.01 in   Clear
1:34 PM 15.8 °F 8.6 °F -7.6 °F 35% 30.17 in 10.0 mi North 4.6 mph - 0.01 in   Clear
1:55 PM 15.8 °F 7.2 °F -7.6 °F 35% 30.17 in 10.0 mi North 5.8 mph - 0.01 in   Clear
2:14 PM 17.6 °F 8.2 °F -5.8 °F 35% 30.17 in 10.0 mi North 6.9 mph - N/A   Clear
2:35 PM 17.6 °F 10.7 °F -5.8 °F 35% 30.17 in 10.0 mi NNE 4.6 mph - N/A   Clear
2:55 PM 17.6 °F 10.7 °F -5.8 °F 35% 30.17 in 10.0 mi North 4.6 mph - N/A   Clear
3:14 PM 17.6 °F 10.7 °F -5.8 °F 35% 30.17 in 10.0 mi East 4.6 mph - N/A   Clear
3:35 PM 17.6 °F - -5.8 °F 35% 30.18 in 10.0 mi Calm Calm - N/A   Clear
3:55 PM 17.6 °F 12.3 °F -5.8 °F 35% 30.18 in 10.0 mi NNE 3.5 mph - N/A   Clear
4:14 PM 17.6 °F 9.3 °F -5.8 °F 35% 30.19 in 10.0 mi NE 5.8 mph - N/A   Clear
4:35 PM 17.6 °F 10.7 °F -5.8 °F 35% 30.18 in 10.0 mi NNE 4.6 mph - N/A   Clear
4:54 PM 17.6 °F 10.7 °F -7.6 °F 32% 30.19 in 10.0 mi NNE 4.6 mph - N/A   Clear
5:14 PM 17.6 °F 12.3 °F -7.6 °F 32% 30.19 in 10.0 mi North 3.5 mph - N/A   Clear
5:35 PM 15.8 °F 10.2 °F -7.6 °F 35% 30.20 in 10.0 mi NNE 3.5 mph - N/A   Clear
5:55 PM 14.0 °F - -7.6 °F 38% 30.21 in 10.0 mi Calm Calm - N/A   Clear
6:14 PM 14.0 °F - -7.6 °F 38% 30.22 in 10.0 mi Calm Calm - N/A   Clear
6:35 PM 12.2 °F - -7.6 °F 41% 30.23 in 10.0 mi Calm Calm - N/A   Clear
6:55 PM 10.4 °F - -7.6 °F 44% 30.23 in 10.0 mi Calm Calm - N/A   Clear
7:14 PM 3.2 °F - -9.4 °F 56% 30.24 in 10.0 mi Calm Calm - N/A   Clear
7:35 PM -0.4 °F - -9.4 °F 66% 30.25 in 10.0 mi Calm Calm - N/A   Clear
7:51 PM -0.4 °F - -9.4 °F 66% 30.25 in 10.0 mi Calm Calm - N/A   Clear
8:15 PM -4.0 °F - -13.0 °F 65% 30.26 in 10.0 mi Calm Calm - N/A   Clear
8:33 PM -5.8 °F - -14.8 °F 65% 30.26 in 10.0 mi Calm Calm - N/A   Clear
8:40 PM -5.8 °F - -14.8 °F 65% 30.26 in 10.0 mi Calm Calm - N/A   Clear
9:14 PM -7.6 °F - -16.6 °F 65% 30.28 in 10.0 mi Calm Calm - N/A   Clear
9:35 PM -9.4 °F - -16.6 °F 71% 30.29 in 10.0 mi Calm Calm - N/A   Clear
9:54 PM -11.2 °F - -18.4 °F 70% 30.30 in 10.0 mi Calm Calm - N/A   Clear
10:15 PM -11.2 °F - -18.4 °F 70% 30.31 in 10.0 mi Calm Calm - N/A   Clear
10:35 PM -11.2 °F - -18.4 °F 70% 30.31 in 10.0 mi Calm Calm - N/A   Clear
10:55 PM -13.0 °F - -20.2 °F 70% 30.32 in 10.0 mi Calm Calm - N/A   Clear
11:14 PM -14.8 °F - -20.2 °F 77% 30.33 in 10.0 mi Calm Calm - N/A   Clear
11:35 PM -16.6 °F - -22.0 °F 76% 30.33 in 10.0 mi Calm Calm - N/A   Clear
11:55 PM -16.6 °F - -23.8 °F 70% 30.34 in 10.0 mi Calm Calm - N/A   Clear